Location: Biberach+an+der+Riss
(48.0937°N, 9.7888°E)
Time: 08:23:36
(UTC+01:00)

ISS - Pass Details

Date: 09 January 2018
Orbit: 402 x 406 km, 51.6° (Epoch: 16 January)

Event Time Altitude Azimuth Distance (km) Brightness Sun altitude
Exits shadow 05:50:13 38° 47° (NE) 635 -2.6 -22.4°
Drops below altitude 10° 05:52:41 10° 83° (E) 1,466 0.0 -22.0°
Sets 05:54:50 0° 90° (E) 2,326 1.5 -21.7°
